Flag for U.S.A. Weather past 2 weeks in Kalamazoo, Michigan, U.S.A.

Now
85 °F

Scattered clouds.


Feels Like: 89 °F
Forecast: 69 / 84 °F
Wind: 14 mph from West

Location: Kalamazoo / Battle Creek International Airport

Current Time: Jul 29, 2015 at 4:51:30 PM

Latest Report: Jul 29, 2015 at 3:53 PM


Visibility: 10 mi

Pressure: 29.91 "Hg

Humidity: 61%

Dew point: 70 °F

Location of KalamazooLocation

Historic Weather in Kalamazoo — Graph

°F

Kalamazoo temperature yesterday

Maximum temperature yesterday: 89 °F (at 3:53 PM)
Minimum temperature yesterday: 64 °F (at 4:53 AM)
Average temperature yesterday: 78 °F

Past Weeks' High & Low Weather Summary

 TemperatureHumidityPressure
High89 °F (Jul 17, 5:53 PM)94% (Jul 27, 2:53 AM)30.09 "Hg (Jul 27, 2:53 AM)
Low56 °F (Jul 16, 3:53 AM)39% (Jul 22, 2:53 PM)29.60 "Hg (Jul 14, 2:53 PM)
Average74 °F69%29.92 "Hg
* Reported Jul 14 2:53 PM — Jul 29 2:53 PM, Kalamazoo, Weather by CustomWeather, © 2015

Note: Actual official high and low records may vary slightly from our data, if they occured in-between our weather recording intervals... More about our weather records

Advertising

Kalamazoo weather history for previous 24 hours

 ConditionsComfort  
Time TempWeatherWind HumidityBarometerVisibility
2:53 PM
Wed, Jul 29
82 °FPartly sunny.12 mph70%29.93 "Hg10 mi
1:53 PM82 °FMostly cloudy.10 mph70%29.94 "Hg10 mi
12:53 PM82 °FMostly cloudy.10 mph72%29.93 "Hg10 mi
11:53 AM85 °FScattered clouds.7 mph65%29.93 "Hg10 mi
10:53 AM84 °FSunny.9 mph67%29.92 "Hg10 mi
9:53 AM80 °FSunny.7 mph74%29.93 "Hg10 mi
8:53 AM78 °FSunny.6 mph74%29.93 "Hg10 mi
7:53 AM75 °FPassing clouds.6 mph76%29.93 "Hg10 mi
6:53 AM73 °FOvercast.5 mph76%29.93 "Hg10 mi
5:53 AM73 °FClear.5 mph74%29.93 "Hg10 mi
4:53 AM73 °FPassing clouds.6 mph74%29.93 "Hg10 mi
3:53 AM74 °FClear.5 mph71%29.91 "Hg10 mi
2:53 AM75 °FClear.5 mph71%29.94 "Hg10 mi
1:53 AM76 °FClear.5 mph69%29.97 "Hg10 mi
12:53 AM73 °FClear.5 mph76%29.97 "Hg10 mi
11:53 PM
Tue, Jul 28
74 °FClear.3 mph76%29.98 "Hg10 mi
10:53 PM75 °FClear.No wind74%29.98 "Hg10 mi
9:53 PM79 °FSunny.No wind67%29.96 "Hg10 mi
8:53 PM83 °FSunny.No wind55%29.94 "Hg10 mi
7:53 PM84 °FSunny.No wind53%29.93 "Hg10 mi
6:53 PM87 °FSunny.6 mph45%29.92 "Hg10 mi
5:53 PM88 °FSunny.6 mph43%29.96 "Hg10 mi
4:53 PM89 °FSunny.7 mph41%29.97 "Hg10 mi
Weather by CustomWeather, © 2015

See weather overviewHow to use our weather pages